Temperature
21 23 23 24 24 24 22 21 20 21 20 20 20 20 20 20 20 20 21 21 20 20 20 20 19 19 19 18 18 18 18 17 17 17 17 17 17 17 17 17 17 17 17 17
21 23 23 23 23 23 23 22 21 21 20 19 19 19 19 20 19 19 20 20 20 20 20 20 19 19 19 18 18 18 18 17 17 17 17 17 17 17 17 17 17 17 17 17
19 21 22 21 21 22 21 21 21 20 19 19 18 18 18 18 19 19 19 20 20 20 20 20 20 19 19 19 18 18 18 17 17 17 17 17 17 17 17 17 16 16 16 16
18 20 20 20 21 21 21 20 20 19 19 18 18 18 18 18 18 19 19 19 19 19 19 19 19 19 19 18 18 18 18 17 17 17 17 17 17 17 16 16 16 16 16 16
16 18 19 20 20 20 19 18 18 18 18 18 17 17 17 18 18 18 18 19 19 19 19 19 19 18 18 18 18 18 17 17 17 17 17 17 16 16 16 16 16 16 16 16
16 18 18 18 19 20 19 17 17 17 17 17 17 16 16 17 17 18 18 18 19 19 19 19 18 18 18 18 17 17 17 17 17 17 17 16 16 16 16 16 16 15 15 15
16 17 17 18 19 19 18 17 17 17 17 17 16 16 16 16 17 17 17 17 18 18 18 18 18 18 17 17 17 17 17 16 16 16 16 16 16 16 15 15 15 15 15 15
15 16 16 16 17 16 15 16 16 16 16 16 16 15 15 16 16 16 16 16 17 17 17 17 17 17 17 17 17 17 16 16 16 16 15 15 15 15 15 15 15 14 14 14
14 14 15 15 15 16 16 16 16 16 16 15 15 14 15 15 15 15 15 15 15 16 16 16 16 16 16 16 16 16 16 16 15 15 15 15 15 15 14 14 14 14 14 14
13 14 14 14 15 15 16 15 16 15 15 15 14 14 14 14 14 14 14 14 14 15 15 15 15 15 15 15 15 15 15 15 15 15 14 14 14 14 14 14 14 13 13 13
13 13 14 14 14 14 15 15 15 15 14 14 14 13 13 13 13 13 13 13 13 14 13 14 14 14 14 14 15 15 14 14 14 14 14 14 13 13 13 13 13 13 12 12
13 13 12 12 13 14 14 14 14 14 13 13 13 13 13 12 12 12 12 12 13 13 13 13 13 13 13 13 14 14 14 14 13 13 13 13 13 12 12 12 12 12 12 11
13 13 13 12 13 13 13 13 13 13 13 12 12 12 12 11 11 11 11 11 12 12 12 12 12 12 12 12 13 13 13 13 13 12 12 12 12 12 12 11 11 11 11 11
14 13 12 12 12 12 12 12 12 12 12 12 11 11 11 11 11 11 11 11 11 11 11 11 12 11 12 12 12 12 12 12 12 12 12 12 12 11 11 11 11 10 10 10
13 13 12 12 12 12 11 11 11 11 11 10 11 10 10 10 10 10 10 10 11 11 11 11 11 11 11 12 12 12 12 12 11 11 11 11 11 11 11 10 10 10 10 9
12 12 12 11 11 11 11 11 11 10 10 10 10 10 10 10 10 10 10 10 10 10 10 11 11 11 11 11 11 11 11 11 11 11 11 11 11 10 10 10 9 9 9 9
11 11 11 11 11 11 10 10 10 10 10 10 10 10 9 9 9 9 9 10 10 10 10 10 10 10 10 11 11 11 11 11 11 10 10 10 10 10 9 9 9 8 8 8
13 12 12 11 11 10 10 10 10 10 10 9 9 9 9 9 9 9 9 9 9 9 9 9 10 10 10 10 10 10 10 10 10 9 9 9 9 9 8 8 8 7 7 7
12 12 11 11 11 11 10 10 10 10 9 9 9 9 9 9 9 9 9 9 9 9 9 9 9 9 9 9 9 9 9 9 9 9 8 8 8 8 8 7 7 7 6 6
11 11 11 11 11 10 10 10 10 9 9 9 9 9 9 9 9 9 9 9 8 8 8 8 9 9 9 9 9 9 9 8 8 8 8 7 7 7 7 6 6 6 5 5
11 11 11 11 10 10 10 10 10 10 9 9 9 9 9 9 9 9 9 8 8 8 8 8 8 8 8 8 8 8 8 8 7 7 7 7 6 6 6 5 5 5 4 4
11 11 11 10 10 10 10 10 10 10 9 9 9 9 9 8 8 8 8 8 7 7 7 7 7 7 7 7 7 7 7 7 7 6 6 6 5 5 5 5 4 4 4 3
11 11 10 10 10 10 10 10 10 10 9 9 9 9 9 8 8 8 7 7 7 7 7 7 7 7 7 7 6 6 6 6 6 5 5 5 4 4 4 4 3 3 3 3
10 10 10 10 10 10 10 9 9 9 9 9 9 9 8 8 8 7 7 6 6 6 6 6 6 6 6 6 5 5 5 5 5 4 4 4 4 3 3 3 3 3 2 2
10 10 10 10 10 9 9 9 9 9 9 8 8 8 8 8 7 7 6 6 6 6 6 5 5 5 5 5 5 5 4 4 4 4 3 3 3 3 3 3 2 2 2 2
9 9 9 10 9 9 9 9 8 8 8 8 7 7 7 7 7 6 6 6 5 5 5 5 5 5 5 4 4 4 4 4 3 3 3 3 3 3 2 2 2 2 2 2
9 9 9 9 9 9 8 8 8 8 8 7 7 7 6 6 6 6 5 5 5 5 5 4 4 4 4 4 3 3 3 3 3 3 2 2 2 2 2 2 2 2 2 1
Wind_Speed
3 3 2 1 1 0 3 5 6 6 7 6 5 4 3 4 6 6 6 7 9 10 10 9 9 8 7 7 6 7 7 6 6 6 6 6 6 6 6 6 7 6 6 5
3 2 3 3 3 3 2 2 3 5 2 1 2 4 3 3 5 5 6 6 8 9 9 10 10 10 8 8 7 7 7 7 6 6 6 6 6 6 6 5 5 6 5 5
1 3 4 2 2 3 3 3 3 3 2 3 4 4 2 3 4 4 3 4 5 8 9 8 9 9 9 8 8 8 7 7 6 6 6 5 6 6 6 5 5 5 5 5
2 4 1 4 2 6 8 7 6 5 5 6 6 5 5 5 5 4 4 3 3 4 6 6 7 7 8 7 8 8 7 6 6 7 6 5 5 6 5 5 5 5 5 5
4 3 2 2 3 1 5 5 6 7 6 6 6 6 6 6 5 4 2 2 2 2 4 6 7 7 8 7 7 7 7 6 6 7 7 6 6 5 5 5 4 4 4 5
4 3 4 3 5 2 7 3 3 4 5 3 4 3 0 3 6 6 5 3 3 4 6 7 6 7 8 7 7 7 6 6 5 5 6 6 6 5 4 5 4 5 5 4
3 3 2 4 6 3 5 4 1 1 3 3 3 3 3 4 6 6 6 5 5 6 6 5 5 8 9 7 6 5 6 6 6 5 6 6 6 5 5 6 5 5 6 5
3 3 4 5 4 3 3 2 2 2 3 5 6 7 6 6 7 7 7 7 7 8 7 6 6 9 10 7 5 6 7 8 7 6 5 5 6 6 6 7 7 6 6 6
3 3 1 2 4 2 3 4 3 3 5 7 7 6 6 7 7 7 7 8 8 10 11 9 8 9 10 7 7 8 9 8 7 7 7 7 7 7 6 6 6 6 6 5
2 2 2 4 6 5 5 5 4 5 6 8 8 7 8 7 8 8 8 8 9 11 12 10 9 10 9 8 8 10 10 8 7 8 8 8 6 6 6 5 6 6 5 5
2 1 3 6 6 6 7 8 8 7 7 7 10 10 9 9 9 9 9 9 10 11 11 11 10 11 10 9 10 11 10 9 9 9 9 9 9 7 7 5 4 6 5 4
3 3 2 1 3 6 8 8 8 9 9 9 9 11 11 10 9 10 10 10 11 12 12 11 11 11 10 9 9 10 9 8 7 7 7 7 8 8 12 10 11 11 8 6
4 5 6 4 5 6 8 9 9 9 10 11 10 11 12 12 10 11 12 12 12 11 11 11 12 11 9 8 9 10 9 8 6 6 6 6 6 7 7 8 11 11 10 9
8 8 6 4 5 7 9 10 11 11 11 11 11 12 12 13 12 13 12 11 12 12 12 11 12 11 9 9 10 10 9 9 8 6 6 6 6 6 6 6 5 5 7 9
5 5 7 8 8 8 9 11 13 12 12 12 11 11 12 13 14 12 11 11 12 13 12 12 13 11 9 10 10 10 9 7 7 6 6 6 6 7 6 7 6 5 5 6
7 8 9 10 10 10 10 12 13 12 12 12 12 12 12 13 13 12 11 11 12 12 10 11 11 9 9 10 11 9 9 11 10 7 7 7 7 7 7 6 6 6 5 4
10 9 10 10 10 10 10 11 12 13 12 13 13 12 13 13 13 12 11 10 11 10 9 9 8 8 9 10 9 7 6 8 11 9 7 7 7 7 6 6 6 6 5 5
8 9 11 12 12 12 12 12 13 13 13 13 12 12 12 12 11 10 8 8 10 11 10 8 8 8 9 9 7 6 6 7 7 7 7 7 7 7 7 7 7 6 5 6
10 11 11 12 12 12 12 12 12 11 11 11 12 11 11 10 9 9 9 10 10 9 7 8 12 11 9 9 8 6 7 8 8 7 7 9 8 7 6 6 6 6 5 5
11 11 12 13 12 12 13 12 12 11 11 11 12 12 11 10 10 10 10 9 6 4 5 8 9 8 8 8 10 7 8 8 8 7 7 7 7 7 6 6 6 6 6 6
12 14 15 14 13 13 12 13 13 13 12 12 12 12 11 10 9 9 9 7 5 6 8 10 8 6 7 8 10 8 8 8 8 7 7 7 7 7 7 6 6 6 6 5
11 13 14 14 14 13 11 12 13 14 13 12 12 12 11 10 9 8 7 4 4 7 7 6 6 9 11 11 8 8 8 8 7 7 7 6 6 6 6 6 5 5 5 4
11 12 13 13 14 13 12 12 12 12 12 11 11 10 9 7 6 7 5 3 4 8 7 6 9 14 14 10 8 8 8 8 7 6 6 6 5 5 5 5 5 4 4 4
12 12 12 12 13 13 12 10 10 10 10 10 9 9 9 8 6 4 4 6 8 9 7 9 14 15 13 8 7 7 7 6 6 6 6 5 5 5 5 5 4 4 4 5
12 12 12 12 11 9 10 10 10 10 10 9 9 8 7 6 6 4 5 6 9 9 6 9 13 13 8 7 7 6 6 6 6 6 5 5 5 5 5 5 5 4 4 4
11 10 9 9 8 8 8 8 8 7 8 8 7 6 6 5 6 6 5 6 8 8 6 6 7 8 6 6 6 6 6 6 6 6 5 5 5 5 5 5 5 4 4 4
10 9 8 8 8 7 8 8 8 7 7 8 8 6 6 6 6 6 6 5 6 6 5 5 5 5 5 5 5 5 5 5 5 5 4 4 4 4 4 4 4 4 5 5
Wind_Direction
177 181 118 79 12 60 130 169 177 199 188 217 215 190 184 156 145 147 158 167 172 171 169 166 167 170 174 176 171 165 162 167 173 170 168 170 175 175 165 164 169 161 160 164
24 33 51 31 19 30 50 95 137 139 147 208 119 98 105 123 134 154 164 165 169 165 166 171 174 175 177 177 173 161 159 164 163 158 158 161 164 158 148 147 146 144 151 156
345 345 39 4 346 71 62 40 125 142 193 134 88 85 103 100 101 117 129 140 152 164 167 172 176 173 174 176 166 160 160 161 159 154 151 152 154 144 146 149 148 149 155 155
102 55 186 246 355 84 87 57 66 101 113 125 127 102 76 78 82 69 57 61 104 145 157 159 160 159 161 161 156 156 155 154 154 153 152 151 144 148 153 148 151 159 158 162
117 153 245 319 352 38 101 52 39 89 91 93 112 74 42 40 61 65 58 69 93 137 141 140 148 153 147 146 145 145 150 155 159 159 156 154 154 158 155 144 142 146 141 139
119 143 202 256 318 335 104 98 17 81 104 113 101 91 18 20 42 46 44 51 76 98 104 117 130 138 137 139 139 147 153 152 147 148 146 146 147 145 139 136 141 133 119 115
140 166 234 308 321 24 113 195 241 113 114 104 101 144 127 63 47 49 49 52 69 85 91 103 119 124 128 131 142 148 132 121 117 125 134 137 134 128 121 119 117 113 105 88
130 152 233 326 30 89 177 173 120 99 97 98 104 102 90 73 59 54 57 62 70 81 77 73 92 113 113 114 122 114 109 105 102 100 109 112 109 106 105 111 109 105 101 87
168 183 232 19 85 79 112 108 109 114 117 118 110 105 91 78 72 68 68 69 71 81 75 65 67 89 96 94 95 100 99 95 91 88 87 93 103 104 97 98 105 104 103 98
84 48 42 61 74 58 71 85 90 109 117 120 118 109 97 88 84 78 72 71 71 76 76 69 65 72 78 82 92 98 99 95 89 87 79 72 76 84 94 97 106 108 110 109
101 106 56 43 53 67 72 73 77 86 93 106 114 108 101 97 92 86 79 72 73 75 76 72 69 68 66 71 85 90 90 89 88 87 88 79 69 60 73 66 94 115 117 118
194 195 140 75 47 80 84 77 84 93 85 85 103 106 101 96 90 88 84 79 78 75 73 69 70 66 59 63 79 89 88 86 89 95 95 96 93 74 55 66 71 78 93 105
153 127 122 114 79 85 92 88 88 92 98 96 93 101 100 96 90 88 85 81 79 77 74 71 69 62 54 59 71 78 82 84 86 91 98 100 100 100 87 58 57 61 67 73
129 120 112 112 107 97 99 98 95 89 88 92 94 95 97 95 91 87 84 83 81 77 70 67 65 55 47 61 71 73 75 75 80 81 84 91 94 94 96 95 76 47 44 57
105 115 130 123 112 106 108 110 105 99 96 93 93 95 96 95 91 85 81 80 78 73 68 66 63 50 43 57 65 68 70 69 72 73 74 79 84 87 87 85 82 73 59 46
111 113 123 125 124 122 120 116 113 111 108 103 98 96 96 95 91 85 78 77 77 70 64 64 59 46 46 55 61 65 66 69 74 75 71 73 78 82 83 83 82 77 69 52
131 139 139 136 131 124 121 119 118 117 114 110 108 105 101 97 92 87 79 74 76 71 62 60 54 46 47 52 59 63 65 67 68 73 70 73 77 81 84 86 82 74 63 60
135 140 144 141 135 127 123 120 119 117 116 115 111 106 104 102 101 96 86 76 72 62 49 46 51 51 48 48 54 57 63 66 70 75 76 75 76 78 80 80 79 76 62 54
119 125 129 132 130 128 127 125 123 120 120 118 114 110 106 101 97 90 80 72 69 61 36 39 50 51 47 44 54 60 68 72 73 72 75 75 73 71 75 76 75 72 66 60
119 124 124 123 121 122 123 123 121 118 117 116 112 105 99 95 94 89 81 72 61 68 58 55 54 47 40 44 58 64 71 75 76 73 72 73 74 70 69 71 70 67 63 62
118 120 121 119 117 117 120 121 119 115 113 111 109 107 103 98 94 89 85 74 39 52 60 56 52 45 48 57 62 66 70 72 73 73 74 75 74 71 69 68 68 68 64 59
117 118 119 118 116 115 114 114 114 113 110 108 107 107 104 100 95 86 76 83 70 69 64 52 52 59 64 67 66 67 69 72 73 74 73 72 73 73 70 69 67 67 66 60
113 113 113 115 115 112 107 107 110 112 112 112 112 110 108 106 105 103 88 56 76 77 70 59 63 67 70 67 66 66 67 70 71 74 74 72 71 71 69 66 63 61 58 54
109 110 110 109 108 108 107 106 106 109 109 108 109 110 110 104 87 82 103 89 86 84 73 67 70 73 72 67 67 65 64 66 70 69 69 69 67 66 66 64 59 53 53 50
106 106 105 104 103 105 108 106 99 97 98 99 97 96 101 109 113 106 93 88 88 83 73 68 75 77 72 69 67 65 63 64 71 72 68 68 65 64 63 59 55 54 50 41
101 101 100 102 108 108 106 104 103 101 101 98 92 92 94 94 99 95 88 85 85 83 77 72 76 76 74 70 67 66 63 61 64 66 67 68 67 68 65 59 54 50 47 43
95 96 96 92 92 99 104 107 109 108 109 110 106 99 98 96 93 94 92 85 82 81 78 74 76 82 83 77 68 63 60 61 62 62 64 63 64 67 66 64 60 58 54 51
Height
1446 1442 1441 1444 1445 1445 1451 1458 1467 1465 1464 1460 1456 1455 1455 1455 1455 1457 1458 1459 1461 1463 1465 1468 1471 1473 1475 1476 1477 1479 1480 1481 1483 1485 1488 1491 1494 1496 1498 1501 1503 1506 1509 1511
1448 1441 1441 1445 1444 1443 1446 1449 1454 1456 1461 1455 1454 1454 1454 1455 1456 1456 1456 1458 1459 1462 1465 1467 1469 1472 1474 1475 1476 1478 1479 1481 1483 1485 1488 1490 1492 1494 1497 1499 1501 1504 1506 1509
1460 1448 1447 1458 1450 1448 1451 1450 1452 1460 1459 1455 1456 1455 1455 1455 1456 1456 1456 1457 1459 1461 1464 1466 1468 1470 1472 1474 1476 1477 1479 1481 1483 1485 1487 1489 1491 1493 1495 1497 1500 1502 1504 1507
1463 1459 1469 1461 1446 1445 1450 1453 1451 1453 1454 1454 1455 1457 1457 1457 1457 1457 1457 1457 1459 1461 1463 1465 1468 1470 1471 1473 1475 1477 1479 1481 1483 1485 1486 1488 1490 1492 1494 1496 1498 1500 1502 1505
1469 1470 1464 1455 1449 1448 1453 1461 1456 1454 1455 1456 1457 1457 1460 1460 1459 1459 1459 1459 1459 1461 1463 1464 1467 1469 1471 1473 1475 1477 1479 1480 1482 1484 1486 1488 1490 1492 1494 1496 1497 1499 1501 1503
1466 1469 1472 1461 1449 1445 1449 1465 1458 1456 1457 1457 1457 1463 1464 1462 1460 1459 1460 1460 1460 1461 1462 1463 1466 1468 1470 1472 1474 1476 1478 1480 1482 1484 1486 1488 1489 1492 1493 1495 1497 1498 1500 1502
1465 1467 1464 1455 1448 1446 1462 1466 1459 1458 1457 1457 1458 1461 1463 1461 1460 1459 1460 1460 1460 1461 1462 1463 1465 1467 1468 1471 1473 1476 1478 1480 1482 1484 1485 1487 1489 1491 1493 1495 1497 1497 1499 1501
1465 1469 1469 1454 1451 1456 1459 1456 1457 1457 1457 1457 1458 1460 1461 1461 1461 1460 1460 1460 1461 1461 1462 1464 1465 1466 1467 1470 1474 1476 1478 1480 1481 1483 1485 1487 1489 1491 1493 1494 1496 1497 1498 1499
1461 1464 1458 1454 1453 1455 1455 1455 1456 1457 1457 1457 1458 1460 1461 1461 1461 1462 1462 1462 1462 1463 1464 1465 1467 1468 1469 1472 1474 1476 1478 1480 1482 1484 1486 1487 1489 1490 1492 1494 1495 1496 1498 1498
1459 1458 1456 1456 1455 1456 1456 1456 1456 1457 1457 1458 1458 1460 1461 1462 1463 1464 1464 1464 1464 1465 1466 1467 1469 1470 1471 1473 1475 1476 1478 1480 1483 1484 1486 1488 1490 1491 1492 1494 1495 1497 1498 1499
1458 1458 1457 1456 1456 1457 1457 1457 1457 1458 1458 1458 1459 1461 1462 1464 1465 1466 1467 1467 1468 1468 1469 1470 1471 1472 1474 1476 1477 1478 1480 1482 1484 1486 1488 1489 1490 1492 1493 1495 1496 1497 1498 1499
1458 1456 1458 1459 1459 1459 1458 1458 1458 1459 1460 1461 1461 1462 1464 1466 1468 1469 1470 1471 1471 1472 1473 1474 1475 1476 1478 1479 1480 1481 1482 1485 1486 1488 1490 1491 1492 1494 1495 1497 1498 1499 1500 1500
1453 1455 1457 1459 1460 1460 1459 1460 1461 1461 1462 1463 1464 1465 1467 1469 1471 1472 1474 1475 1476 1477 1478 1479 1480 1481 1482 1484 1484 1485 1486 1488 1489 1490 1492 1493 1494 1495 1497 1499 1500 1501 1501 1502
1452 1454 1457 1459 1460 1461 1461 1462 1463 1464 1465 1466 1468 1469 1471 1473 1475 1477 1478 1480 1481 1482 1483 1484 1485 1486 1488 1489 1489 1489 1490 1492 1493 1493 1494 1495 1496 1498 1499 1500 1501 1503 1503 1504
1452 1453 1455 1458 1460 1461 1463 1464 1465 1467 1469 1471 1472 1474 1475 1477 1479 1482 1484 1485 1486 1487 1488 1489 1490 1491 1492 1493 1493 1493 1494 1495 1496 1497 1498 1498 1499 1500 1501 1503 1503 1504 1505 1505
1452 1454 1456 1458 1460 1462 1464 1466 1467 1470 1473 1475 1477 1479 1481 1482 1484 1486 1488 1490 1490 1492 1493 1494 1494 1496 1497 1497 1496 1497 1498 1499 1499 1500 1500 1501 1502 1503 1504 1504 1505 1505 1506 1506
1452 1454 1457 1459 1461 1464 1466 1468 1470 1473 1476 1479 1481 1484 1486 1487 1489 1492 1493 1495 1495 1496 1498 1498 1499 1500 1500 1500 1500 1501 1501 1502 1502 1503 1503 1503 1504 1505 1506 1506 1506 1507 1507 1507
1453 1454 1457 1459 1462 1465 1469 1472 1475 1478 1480 1483 1486 1488 1491 1493 1494 1496 1498 1499 1500 1501 1502 1502 1503 1503 1504 1504 1504 1504 1504 1504 1505 1505 1506 1506 1507 1507 1507 1507 1508 1508 1507 1507
1455 1457 1460 1463 1466 1469 1472 1475 1479 1482 1484 1487 1490 1492 1495 1497 1499 1501 1502 1503 1503 1504 1505 1506 1506 1506 1506 1507 1507 1506 1507 1507 1507 1508 1508 1508 1508 1509 1509 1509 1509 1508 1508 1507
1458 1461 1463 1467 1470 1473 1476 1480 1483 1486 1489 1492 1494 1497 1499 1501 1503 1504 1506 1506 1507 1508 1509 1509 1509 1509 1509 1509 1508 1509 1509 1509 1510 1510 1510 1509 1509 1509 1509 1509 1509 1508 1508 1506
1461 1463 1467 1470 1474 1478 1481 1484 1487 1490 1493 1496 1498 1500 1503 1505 1507 1508 1508 1509 1511 1511 1511 1511 1511 1511 1510 1510 1510 1511 1511 1511 1511 1511 1511 1510 1510 1510 1510 1510 1509 1508 1507 1506
1464 1467 1470 1474 1478 1481 1485 1488 1491 1494 1497 1500 1502 1504 1506 1508 1509 1510 1511 1512 1513 1514 1513 1513 1513 1513 1513 1512 1512 1512 1512 1512 1512 1512 1512 1511 1511 1511 1510 1510 1509 1508 1506 1505
1468 1471 1475 1478 1482 1485 1489 1492 1495 1498 1500 1503 1505 1507 1509 1511 1512 1513 1514 1515 1515 1515 1515 1515 1515 1515 1514 1514 1514 1514 1514 1513 1513 1513 1512 1512 1512 1511 1510 1509 1508 1507 1506 1505
1473 1476 1479 1483 1486 1489 1492 1496 1499 1501 1504 1506 1508 1510 1512 1513 1514 1515 1516 1516 1517 1517 1517 1517 1517 1516 1516 1516 1515 1515 1515 1514 1514 1514 1513 1513 1512 1511 1510 1509 1508 1507 1506 1504
1477 1480 1483 1487 1490 1493 1496 1499 1502 1505 1507 1509 1511 1513 1514 1515 1516 1517 1518 1518 1518 1519 1519 1519 1518 1518 1518 1518 1517 1517 1516 1516 1515 1515 1514 1514 1513 1512 1511 1509 1508 1507 1506 1505
1481 1484 1487 1491 1494 1497 1499 1502 1504 1507 1509 1511 1513 1515 1516 1517 1518 1519 1519 1520 1520 1520 1520 1520 1520 1520 1520 1519 1519 1518 1518 1517 1516 1516 1515 1514 1513 1512 1511 1510 1509 1507 1506 1505
1486 1489 1492 1495 1498 1500 1503 1505 1507 1509 1511 1513 1515 1517 1518 1519 1520 1520 1521 1521 1521 1522 1522 1522 1522 1521 1521 1520 1520 1519 1519 1518 1517 1517 1516 1515 1514 1513 1511 1510 1509 1508 1506 1505